This is the latest recevied weather packets stored in our database for station/object K0JRF-13. If no packets are shown the sender has not sent any weather packets the latest 10 day(s).
| Time | Temp. | Humidity | Pressure | Rain* | Wind** | Luminosity | Snow |
|---|---|---|---|---|---|---|---|
| 1787969993 | 15.56° C | 86% | 1022.4 hPa | 0 mm | - | - | - |
| 1787969393 | 16.11° C | 88% | 1022.4 hPa | 0 mm | - | - | - |
| 1787968793 | 16.11° C | 87% | 1022.4 hPa | 0 mm | - | - | - |
| 1787968193 | 16.67° C | 86% | 1022.4 hPa | 0 mm | - | - | - |
| 1787967593 | 16.67° C | 84% | 1022.4 hPa | 0 mm | - | - | - |
| 1787966993 | 16.67° C | 86% | 1022.4 hPa | 0 mm | - | - | - |
| 1787966393 | 16.11° C | 85% | 1022 hPa | 0 mm | - | - | - |
| 1787965793 | 16.11° C | 85% | 1022 hPa | 0 mm | - | - | - |
| 1787965193 | 16.67° C | 84% | 1021.7 hPa | 0 mm | - | - | - |
| 1787964593 | 16.67° C | 83% | 1022 hPa | 0 mm | - | - | - |
| 1787963993 | 17.22° C | 81% | 1021.7 hPa | 0 mm | - | - | - |
| 1787963393 | 18.89° C | 80% | 1021.3 hPa | 0 mm | - | - | - |
| 1787962793 | 20.56° C | 79% | 1021.3 hPa | 0 mm | - | - | - |
| 1787962193 | 21.11° C | 80% | 1021.3 hPa | 0 mm | - | - | - |
| 1787961593 | 21.67° C | 76% | 1021.3 hPa | 0 mm | - | - | - |
| 1787960993 | 22.22° C | 70% | 1021.3 hPa | 0 mm | - | - | - |
| 1787960393 | 21.67° C | 69% | 1021.3 hPa | 0 mm | - | - | - |
| 1787959793 | 21.11° C | 64% | 1021.3 hPa | 0 mm | - | - | - |
| 1787959193 | 21.11° C | 61% | 1021.3 hPa | 0 mm | - | - | - |
| 1787958593 | 21.67° C | 62% | 1021.3 hPa | 0 mm | - | - | - |
| 1787957993 | 22.22° C | 55% | 1021.3 hPa | 0 mm | - | - | - |
| 1787957393 | 22.22° C | 49% | 1021.3 hPa | 0 mm | - | - | - |
| 1787956793 | 22.22° C | 49% | 1021.3 hPa | 0 mm | - | - | - |
| 1787956193 | 21.67° C | 49% | 1021.3 hPa | 0 mm | - | - | - |
| 1787955593 | 21.67° C | 47% | 1021.3 hPa | 0 mm | - | - | - |
* Rain latest hour (hover to see other rain measurements)
** Current wind speed in m/s (hover to see current wind gust speed)